Location: Unspecified
(17.6330°N, 0.0000°E)
Time: 03:15:00
(UTC+00:00)

S-56A Canister/Altair - Pass Details

Date: 27 June 2019
Orbit: 632 x 2500 km, 38.9° (Epoch: 22 July)

Event Time Altitude Azimuth Distance (km) Brightness Sun altitude
Rises 08:29:28 0° 183° (S) 5,969 11.9 39.9°
Reaches altitude 10° 08:37:24 10° 157° (SSE) 5,139 11.9 41.7°
Maximum altitude 08:42:33 12° 136° (SE) 4,948 12.1 42.9°
Drops below altitude 10° 08:47:38 10° 116° (ESE) 5,092 12.4 44.1°
Sets 08:55:11 0° 90° (E) 5,865 12.7 45.8°
